Agen Judi Poker

Jackpot

Texas Poker Multi Jackpot System

Kini Telah hadir Jackpot SUPER ROYAL FLUSH

Kini Telah hadir Jackpot 2000 (khusus table VIP keatas).

Ikutilah global jackpot yang tersedia di system kami, dengan system jackpot terbaru dan pertama di indonesia, anda dapat membeli jackpot dengan harga 100 rupiah saja dan menangkan hadiahnya hingga puluhan juta rupiah.

Jackpot bukanlah suatu keharusan untuk dibeli, namun kami memberikan suatu fitur tambahan untuk member tercinta dari www.pokerdatuk.net.

Terdapat tiga pilihan harga jackpot yang bisa anda beli yaitu :100,500,1000 dan 2000(khusus table VIP Keatas) rupiah.

Hadiah dari Multi jackpot system www.pokerdatuk.net

  1. full house x 10 harga jackpot yang anda beli.
      (contoh:anda membeli 1000 maka:1000 X10 = 10.000)
  2. four of kind x 250 harga jackpot yang anda beli
      (contoh:anda membeli 1000 maka:1000 X250 = 250.000)
  3. Straight flush x 1200
      (contoh:anda membeli 1000 maka:1000 X1200 = 1.200.000)
  4. Royal flush x 10000 harga jackpot yang anda beli
      (contoh:anda membeli 1000 maka:1000 X10000 = 10.000.000)
  5. SUPER ROYAL FLUSH x 30000 harga jackpot yang anda beli
      (contoh:anda membeli 1000 maka:1000 X30000 = 30.000.000)

Kondisi kartu

  1. full house adalah kondisi kartu dimana kartu anda dan kartu tengah dengan total 7 kartu bisa mendapatkan nilai 5 kartu dengan kombinasi 1 tris(three of kind) dan 1 pair, contoh 3 kartu 10 dan 2 kartu 5
  2. Four of kind adalah kondisi kartu dimana kartu anda dan kartu tengah dengan total 7 kartu bisa mendapatkan nilai 5 kartu dengan kombinasi 4 kartu yang sama jumlah dan 1 kartu apapun juga contoh anda mendapatkan 4 buah kartu angka 3 dan 1 kartu apapun.
  3. Staright flush adalah kondisi kartu dimana kartu anda dan kartu tengah dengan total 7 kartu bisa mendapatkan nilai 5 kartu dengan kombinasi seri / staright dengan kembang yang sama contoh : urutan kartu dari angka 5, 6, 7, 8 , 9 10 dengan kembang yg sama misalnya as hati
  4. Royal flush adalah kondisi kartu dimana kartu anda dan kartu tengah dengan total 7 kartu bisa mendapatkan nilai 5 kartu dengan kombinasi seri / staright dengan kembang yang sama tetapi kartu tersebut haruslah dimulai dari 10. contoh 10, Queen, Jack, King dan aces dengan kembang yang sama
  5. Super Royal flush adalah kondisi kartu dimana Kedua kartu anda digabung dengan 3 kartu pertama meja haruslah royal flush. contoh kartu anda 10,Queen kembang sama dan 3 kartu pertama meja adalah Jack, King dan aces dengan kembang yang sama

Demikian adalah penjelasan dari Multi Jackpot www.pokerdatuk.net terima kasih dan selamat bermain salam hoki dari kami

Texas Poker Jackpot Winner

TOP SUPER ROYAL FLUSH
No.TanggalNamaPriceWin
123/10 23:21E3296E1FSuper Royal flush6,000,000
223/10 22:34AKBP85Super Royal flush60,000,000
323/10 22:03VID1995Super Royal flush3,000,000
423/10 20:44SUGARA92Super Royal flush15,000,000
523/10 15:01ALANG77Super Royal flush3,000,000
TOP ROYAL FLUSH
No.TanggalNamaPriceWin
124/10 04:52BELENGTONRoyal flush1,000,000
224/10 04:10SUCIQUUUUURoyal flush2,000,000
324/10 03:07SULUSULURoyal flush20,000,000
424/10 02:51CEMMNNNORoyal flush5,000,000
524/10 02:31IVANK85Royal flush5,000,000
TOP STRAIGHT FLUSH
No.TanggalNamaPriceWin
124/10 05:16REDMI_30Straight Flush240,000
224/10 05:12MUAZIMI22Straight Flush600,000
324/10 05:10TONKUSIL86Straight Flush120,000
424/10 05:10RAPRAPStraight Flush240,000
524/10 05:00O2JH9KMQMAStraight Flush60,000
LATEST JACKPOT
No.TanggalNamaPriceWin
124/10 05:17JORO88Full House5,000
224/10 05:17CLASS22Full House5,000
324/10 05:17JOHRST02Four Of A Kind125,000
424/10 05:17AA04CF10Full House1,000
524/10 05:17AWWANKK99Full House10,000
624/10 05:17KRODIT04Full House2,000
724/10 05:17GOSGOS123Full House10,000
824/10 05:16TENGGEXFull House1,000
924/10 05:16C069D1F0Full House2,000
1024/10 05:16BB7B0B23Full House2,000
1124/10 05:16DHANCOXZFull House10,000
1224/10 05:16RHEGHEAFull House1,000
1324/10 05:16JUSN4Full House500
1424/10 05:16APPO11Full House10,000
1524/10 05:16KEMPES09Full House5,000
1624/10 05:16SOLDIER99Full House5,000
1724/10 05:16CKCKCK88Full House20,000
1824/10 05:16IMAN4141Full House5,000
1924/10 05:16BW7HRSQEIJFull House5,000
2024/10 05:16PHILIP7Full House10,000
2124/10 05:16FCF39D1EFull House1,000
2224/10 05:16YUHFull House5,000
2324/10 05:16GAIBNAGA88Four Of A Kind125,000
2424/10 05:16CWEK12Full House10,000
2524/10 05:16YANOT_77Full House2,000
2624/10 05:16T14NJ1U78Full House5,000
2724/10 05:16BANGPAK_10Full House5,000
2824/10 05:16SUP3RMAN88Full House2,000
2924/10 05:16NICOCARUS1Full House1,000
3024/10 05:16JALESVEVAAFull House5,000
3124/10 05:16BILLYICHAFull House1,000
3224/10 05:16K4Z4OFull House2,000
3324/10 05:16C0C8BB6DFull House5,000
3424/10 05:16TEMPO83Full House1,000
3524/10 05:16REDMI_30Straight Flush240,000
3624/10 05:16DHEDHEDHEFull House10,000
3724/10 05:16COXCOX123Full House2,000
3824/10 05:16GLOFull House1,000
3924/10 05:16REINALDO10Full House2,000
4024/10 05:16MELAWITIGAFull House20,000
4124/10 05:16C7BD72BAFull House10,000
4224/10 05:16KWUACHI99Full House5,000
4324/10 05:16BODAT_Full House5,000
4424/10 05:16OXYYHKN29YFull House5,000
4524/10 05:16CR7SPEEDFull House10,000
4624/10 05:16KNOCKOUT98Full House5,000
4724/10 05:15C7K7RW8N5Full House2,000
4824/10 05:15S4KSI_44Full House1,000
4924/10 05:15ADEDEWA1Full House1,000
5024/10 05:15FCF96FF9Full House2,000

Domino Multi Jackpot System

Ikutilah global jackpot yang tersedia di system kami, dengan system jackpot terbaru dan pertama di indonesia, anda dapat membeli jackpot dengan harga 100 rupiah saja dan menangkan hadiahnya hingga puluhan juta rupiah.

Jackpot bukanlah suatu keharusan untuk dibeli, namun kami memberikan suatu fitur tambahan untuk member tercinta dari www.pokerdatuk.net.

Terdapat tiga pilihan harga jackpot yang bisa anda beli yaitu :100,500 dan 1000 rupiah.

Hadiah dari Multi jackpot system www.pokerdatuk.net

  1. Murni Kecil x 50 harga jackpot yang anda beli.
      (contoh:anda membeli 1000 maka:1000 X 50 = 50.000)
  2. Murni Besar x 50 harga jackpot yang anda beli
      (contoh:anda membeli 1000 maka:1000 X 50 = 50.000)
  3. BALAK x 100 harga jackpot yang anda beli
      (contoh:anda membeli 1000 maka:1000 X 100 = 100.000)
  4. ENAM DEWA x 6666 harga jackpot yang anda beli
      (contoh:anda membeli 1000 maka:1000 X 6666 = 6.666.000)

Demikian adalah penjelasan dari Multi Jackpot www.pokerdatuk.net terima kasih dan selamat bermain salam hoki dari kami

Domino Jackpot Winner

TOP ENAM DEWA
No.TanggalNamaPriceWin
124/10 03:36BAI88murni enam666,600
224/10 02:11GELLIS99murni enam666,600
324/10 02:07LEHO777murni enam3,333,000
424/10 01:07ITXTOJZFA7murni enam666,600
524/10 00:46IKENZ99murni enam6,666,000
TOP BALAK
No.TanggalNamaPriceWin
124/10 05:04PAGI713balak10,000
224/10 04:58LIMATUJU1balak100,000
324/10 04:56TONS2NDbalak100,000
424/10 04:54GODAY05balak10,000
524/10 04:53MRSING23balak50,000
LATEST JACKPOT
No.TanggalNamaPriceWin
124/10 05:16B2AE414Dmurni kecil5,000
224/10 05:16PD15murni besar25,000
324/10 05:15ENDANK6666murni kecil25,000
424/10 05:15DGSNMIBCV8murni kecil5,000
524/10 05:15LISTAN12murni besar50,000
624/10 05:14MBAPPE16murni kecil5,000
724/10 05:11THAILAND07murni kecil50,000
824/10 05:10PD15murni kecil25,000
924/10 05:09BISMILAH9murni besar5,000
1024/10 05:09YESYUU69murni kecil5,000
1124/10 05:07NANDA2626murni besar5,000
1224/10 05:06GOKIL1998murni besar5,000
1324/10 05:06MRSING23murni besar5,000
1424/10 05:05LISTAN12murni kecil50,000
1524/10 05:04CAFEGAUL74murni besar50,000
1624/10 05:04KIM1989murni besar50,000
1724/10 05:04PAGI713balak10,000
1824/10 05:04DANVIN9murni kecil25,000
1924/10 05:02YESYUU69murni kecil5,000
2024/10 05:02RONGSOB9murni kecil5,000
2124/10 05:01ENDANK6666murni besar25,000
2224/10 05:00ENDANK6666murni kecil25,000
2324/10 04:59KENOTINGKEmurni besar25,000
2424/10 04:58LIMATUJU1balak100,000
2524/10 04:56SELLONEmurni besar25,000
2624/10 04:56TONS2NDbalak100,000
2724/10 04:54GODAY05balak10,000
2824/10 04:53DESIGA12murni besar25,000
2924/10 04:53BUAYA6X4murni besar50,000
3024/10 04:53MRSING23balak50,000
3124/10 04:53SMILEBO5SSmurni kecil5,000
3224/10 04:52FINDAA32balak10,000
3324/10 04:51CAKSAFAbalak10,000
3424/10 04:50TONS2NDmurni besar50,000
3524/10 04:49APIAPI83murni kecil5,000
3624/10 04:49RENGIS97murni besar50,000
3724/10 04:49CAFEGAUL74balak100,000
3824/10 04:48RAFIFBOY2murni besar5,000
3924/10 04:47FOLDD90murni kecil25,000
4024/10 04:47REGOMBEL77murni besar25,000
4124/10 04:46TONS2NDmurni besar50,000
4224/10 04:45YOGAGAYUNGmurni kecil25,000
4324/10 04:44GODAY05murni kecil5,000
4424/10 04:43BUAYA6X4murni kecil25,000
4524/10 04:43JONGO522murni besar5,000
4624/10 04:43DANVIN9murni kecil25,000
4724/10 04:42STREKAS1murni kecil5,000
4824/10 04:42MONENG12murni besar5,000
4924/10 04:41FABREGAS21murni kecil5,000
5024/10 04:41BNT6murni kecil25,000

Ceme Multi Jackpot System

Jackpot dilihat dari gabungan kartu pemain dengan kartu bandar. Bandar harus membeli jackpot sebanyak jumlah player yang sedang duduk. Sebagai contoh bila terdapat 3 pemain duduk bermain, dan bandar memutuskan untuk membeli jackpot Rp 1.000, maka pada periode tersebut bandar akan membeli jackpot sebanyak 3xRp1.000 = Rp3.000.

Jackpot bukanlah suatu keharusan untuk dibeli, namun kami memberikan suatu fitur tambahan untuk member tercinta dari www.pokerdatuk.net.

Terdapat tiga pilihan harga jackpot yang bisa anda beli yaitu :100,500 dan 1000 rupiah.

Hadiah dari Multi jackpot system www.pokerdatuk.net

  1. Murni Kecil x 50 harga jackpot yang anda beli.
      (contoh:anda membeli 1000 maka:1000 X 50 = 50.000)
  2. Murni Besar x 50 harga jackpot yang anda beli
      (contoh:anda membeli 1000 maka:1000 X 50 = 50.000)
  3. BALAK x 200 harga jackpot yang anda beli
      (contoh:anda membeli 1000 maka:1000 X 200 = 200.000)
  4. ENAM DEWA x 6666 harga jackpot yang anda beli
      (contoh:anda membeli 1000 maka:1000 X 6666 = 6.666.000)

Demikian adalah penjelasan dari Multi Jackpot www.pokerdatuk.net terima kasih dan selamat bermain salam hoki dari kami

Ceme Jackpot Winner

TOP ENAM DEWA
No.TanggalNamaPriceWin
124/10 05:08PEZE99murni enam3,333,000
224/10 04:54OOSOOmurni enam6,666,000
324/10 04:27JHODI07murni enam6,666,000
424/10 04:11YOGABOEGIKmurni enam3,333,000
524/10 03:37MAS55L3L3murni enam666,600
TOP BALAK
No.TanggalNamaPriceWin
124/10 05:16ZEMPAK10balak100,000
224/10 05:13EKAKEK87balak20,000
324/10 05:12SPREI1991balak200,000
424/10 05:12AKONX23balak200,000
524/10 05:12PTJAYA77balak200,000
LATEST JACKPOT
No.TanggalNamaPriceWin
124/10 05:17REALISTmurni besar50,000
224/10 05:16NYEBENGmurni kecil5,000
324/10 05:16ZEMPAK10balak100,000
424/10 05:16FENDIARD03murni besar5,000
524/10 05:15OMGAN12murni kecil5,000
624/10 05:14OMGAN12murni besar5,000
724/10 05:13BS4CU1Imurni besar50,000
824/10 05:13LANCER32murni kecil50,000
924/10 05:13EKAKEK87balak20,000
1024/10 05:12NYEBENGmurni kecil5,000
1124/10 05:12SPREI1991balak200,000
1224/10 05:12AKONX23balak200,000
1324/10 05:12QQJUANTImurni kecil25,000
1424/10 05:12KIDOD87murni kecil50,000
1524/10 05:12LAMUN00murni besar5,000
1624/10 05:12PTJAYA77balak200,000
1724/10 05:12PHONICbalak20,000
1824/10 05:12SOKA337murni kecil50,000
1924/10 05:11SYAH8888murni kecil5,000
2024/10 05:11GALAN907balak200,000
2124/10 05:11D2F8CB43balak20,000
2224/10 05:11GANE89murni besar50,000
2324/10 05:11HNR99murni kecil50,000
2424/10 05:10PAPAKCUYmurni kecil25,000
2524/10 05:10U71D293Q9Omurni kecil50,000
2624/10 05:10IVANDHOmurni kecil50,000
2724/10 05:10F6504200balak200,000
2824/10 05:10MONOL_9balak200,000
2924/10 05:10SOKA337murni kecil50,000
3024/10 05:09AAKHAF8794murni kecil25,000
3124/10 05:09TOTOM93murni kecil5,000
3224/10 05:09AYAM0559murni besar25,000
3324/10 05:09BEBEN818murni besar5,000
3424/10 05:09ZNKZ86murni besar50,000
3524/10 05:08TEDDY871murni besar50,000
3624/10 05:08CICE9999balak200,000
3724/10 05:08CRAT0Smurni kecil50,000
3824/10 05:08PEZE99murni enam3,333,000
3924/10 05:07KUNCEN888murni kecil50,000
4024/10 05:07LUCKII84murni kecil25,000
4124/10 05:07LB884069balak200,000
4224/10 05:07AGENDOSA07balak200,000
4324/10 05:07ANTZ24murni besar50,000
4424/10 05:07ANTZ24balak200,000
4524/10 05:07ZEMPAK35balak200,000
4624/10 05:07GIVOY378balak100,000
4724/10 05:07ANJA555balak200,000
4824/10 05:07QQLAPAKmurni besar50,000
4924/10 05:07YADIYADI99murni besar50,000
5024/10 05:07QBPNBU2NYGbalak100,000